Temperature
7 8 8 8 8 8 7 7 7 8 8 8 8 7 8 8 8 8 8 9 9 9 9 9 9 9 9 9 9 8 8 8 8 8 8 9 9 9 8 8 8 7 6 5
6 7 8 8 8 8 8 8 8 8 7 7 7 7 7 7 7 7 7 7 8 8 8 9 9 9 9 9 8 8 8 8 8 8 8 8 8 8 8 7 7 6 5 4
5 7 7 6 7 7 7 7 7 7 7 6 6 6 6 5 5 5 6 6 7 7 7 8 8 8 8 9 8 8 8 8 8 8 8 8 8 7 7 6 5 4 3 3
4 6 5 6 7 7 5 5 5 5 5 5 5 6 5 5 5 5 5 6 6 6 7 7 8 8 8 8 8 8 8 8 8 7 7 7 7 7 6 5 4 3 2 2
4 5 5 6 6 6 6 4 4 4 4 4 5 5 5 5 4 4 4 5 5 6 6 7 7 7 8 8 8 8 8 8 7 7 7 7 6 6 5 4 3 2 1 1
4 5 5 6 6 6 6 4 3 3 3 3 4 3 4 4 4 4 4 4 4 5 5 6 6 7 7 7 7 7 7 7 7 6 6 6 6 5 4 3 2 1 1 0
4 4 4 5 5 6 5 4 3 3 2 2 2 2 3 3 3 3 3 3 4 4 5 5 5 6 6 6 6 6 6 6 6 6 5 5 5 4 3 2 1 1 0 -0
3 4 4 4 4 4 3 3 2 2 2 2 2 2 2 2 2 2 2 2 3 3 4 4 4 4 5 5 5 5 5 5 5 5 4 4 4 3 2 2 1 0 -0 -0
3 3 3 3 3 2 3 2 2 1 1 1 1 1 1 1 1 1 1 1 2 2 2 3 3 3 3 4 4 4 4 4 4 4 4 3 3 3 2 1 1 0 -0 -0
2 2 2 2 2 2 2 1 1 1 1 0 0 0 0 0 0 0 0 1 1 1 1 2 2 3 3 3 3 3 3 3 3 3 3 3 3 2 2 1 1 0 0 0
2 1 1 1 1 1 1 1 1 0 0 -0 -0 -0 -0 -0 -0 -0 -0 -0 -0 -0 0 1 2 2 2 2 2 2 2 2 2 2 2 2 2 2 2 2 1 1 0 0
1 1 0 1 1 1 1 0 0 -0 -0 -0 -1 -1 -1 -1 -1 -1 -1 -1 -1 -0 -0 0 1 1 1 1 2 2 2 2 2 2 2 2 2 2 1 1 1 0 0 0
2 2 1 1 1 0 -0 -0 -0 -1 -1 -1 -1 -1 -2 -2 -1 -1 -1 -1 -1 -1 -1 -1 -0 0 1 1 1 1 1 2 2 2 2 2 2 1 1 1 1 0 0 0
2 1 1 1 0 -0 -0 -1 -1 -1 -1 -1 -2 -2 -2 -2 -2 -2 -2 -2 -2 -2 -2 -1 -1 -0 -0 0 0 0 1 1 1 1 1 1 1 1 1 1 0 1 1 0
1 1 1 0 -0 -0 -1 -1 -1 -1 -1 -2 -2 -2 -2 -3 -3 -2 -2 -2 -3 -2 -2 -2 -2 -1 -1 -1 -0 -0 -0 0 1 1 1 1 1 0 0 0 0 1 1 0
1 1 0 0 -0 -0 -1 -1 -1 -1 -1 -2 -2 -2 -3 -3 -3 -3 -3 -3 -3 -3 -3 -3 -2 -2 -2 -2 -1 -1 -1 -0 -0 0 0 0 0 0 0 -0 0 0 0 0
1 0 0 -0 -0 -0 -1 -1 -1 -2 -2 -2 -2 -3 -3 -3 -3 -3 -3 -3 -4 -3 -3 -3 -3 -3 -3 -2 -2 -2 -1 -1 -1 -1 -0 -0 -0 -0 -0 -0 0 0 0 0
1 1 0 -0 -0 -1 -1 -1 -1 -2 -2 -2 -3 -3 -3 -3 -3 -3 -3 -4 -4 -3 -3 -4 -4 -4 -3 -3 -3 -2 -2 -2 -1 -1 -1 -1 -0 -0 -0 -0 -0 -0 -0 -0
1 0 -0 -0 -1 -1 -1 -1 -2 -2 -2 -3 -3 -3 -3 -3 -4 -4 -4 -4 -4 -4 -4 -4 -4 -4 -4 -4 -4 -3 -3 -3 -2 -2 -2 -2 -1 -1 -1 -1 -1 -0 -0 -0
0 -0 -0 -1 -1 -1 -1 -2 -2 -2 -2 -3 -3 -3 -3 -4 -4 -4 -4 -4 -4 -5 -5 -5 -5 -5 -4 -4 -4 -4 -4 -3 -3 -3 -2 -2 -2 -1 -1 -1 -1 -1 -1 -1
-0 -0 -1 -1 -1 -1 -2 -2 -2 -2 -3 -3 -4 -4 -4 -4 -4 -4 -5 -4 -4 -5 -5 -5 -5 -5 -5 -5 -5 -4 -4 -4 -4 -3 -3 -3 -2 -2 -2 -1 -1 -1 -1 -1
-0 -1 -1 -1 -2 -2 -2 -2 -3 -3 -3 -3 -4 -4 -4 -4 -4 -4 -5 -5 -5 -5 -5 -5 -5 -5 -5 -5 -5 -5 -5 -4 -4 -4 -4 -3 -3 -3 -2 -2 -2 -2 -2 -1
-1 -1 -2 -2 -2 -2 -2 -2 -3 -3 -4 -4 -4 -4 -5 -5 -5 -5 -5 -5 -5 -5 -5 -5 -5 -5 -6 -6 -6 -5 -5 -5 -5 -4 -4 -4 -4 -3 -3 -3 -3 -3 -2 -2
-1 -2 -2 -2 -2 -3 -3 -3 -3 -3 -4 -4 -4 -4 -5 -5 -5 -5 -5 -5 -5 -5 -6 -6 -6 -6 -6 -6 -6 -6 -5 -5 -5 -5 -5 -4 -4 -4 -4 -4 -3 -3 -3 -3
-2 -2 -2 -3 -3 -3 -3 -3 -4 -4 -4 -4 -4 -5 -5 -6 -6 -6 -6 -6 -6 -6 -6 -6 -6 -6 -6 -6 -6 -6 -6 -6 -5 -5 -5 -5 -5 -4 -4 -4 -4 -4 -4 -4
-2 -3 -3 -3 -3 -4 -4 -4 -4 -5 -5 -5 -5 -5 -5 -6 -6 -6 -6 -6 -6 -6 -6 -6 -6 -6 -6 -6 -6 -6 -6 -6 -6 -6 -6 -5 -5 -5 -5 -5 -4 -4 -4 -4
-3 -3 -3 -3 -4 -4 -5 -5 -5 -5 -6 -6 -6 -6 -6 -6 -6 -6 -6 -6 -6 -6 -6 -6 -6 -6 -6 -6 -6 -6 -6 -6 -6 -6 -6 -6 -6 -5 -5 -5 -5 -5 -5 -5
Wind_Speed
1 1 3 2 2 3 4 5 5 3 2 1 1 3 3 5 6 6 6 6 6 5 5 5 5 5 5 6 6 7 8 8 8 7 6 6 6 6 5 5 5 5 4 4
3 3 2 2 1 2 3 3 4 3 2 1 1 3 5 6 6 7 7 7 7 7 7 6 6 6 6 7 7 8 9 9 8 7 7 7 6 6 6 5 5 5 5 5
1 3 4 3 4 3 2 0 2 4 2 1 2 4 4 5 6 6 7 8 8 8 8 8 7 7 8 8 7 8 9 9 9 9 8 7 7 7 6 6 5 5 4 5
2 2 2 4 2 3 7 6 5 4 3 3 1 1 4 4 5 6 8 9 9 9 9 9 8 7 7 6 7 9 9 9 9 9 9 8 7 7 6 5 5 5 5 5
3 2 3 3 2 1 4 2 4 3 3 5 4 1 1 4 6 6 7 8 8 9 9 9 9 7 5 5 6 8 9 10 10 10 10 9 9 8 6 5 5 4 5 6
3 3 5 4 2 2 3 2 2 3 4 5 5 2 3 7 8 8 8 8 9 9 8 9 8 6 4 5 6 9 9 9 9 10 10 10 9 7 5 5 5 5 5 5
3 3 4 3 4 1 3 3 1 2 2 3 2 4 7 9 8 8 8 9 9 9 8 8 8 5 4 5 7 7 5 6 8 9 9 9 8 6 6 6 6 6 6 5
4 4 6 1 2 3 2 2 2 1 2 3 5 7 8 8 9 9 9 9 9 9 9 8 7 5 6 6 5 3 5 7 8 8 8 7 8 7 7 8 8 7 6 5
5 4 1 3 4 3 3 2 1 2 3 5 6 7 8 8 8 9 9 9 8 9 10 9 7 5 7 6 4 4 5 6 7 8 7 8 9 9 8 8 7 7 6 6
2 2 3 4 4 3 2 1 1 3 4 5 7 8 9 9 9 8 8 8 8 9 9 9 8 7 6 6 4 5 6 6 6 8 8 8 8 8 8 9 8 8 8 7
2 2 3 1 1 1 1 1 3 4 5 6 7 8 9 9 9 9 9 8 8 9 10 10 10 9 7 5 4 6 6 6 7 8 8 9 9 9 9 9 10 10 9 8
5 5 4 4 2 1 1 3 4 5 7 6 6 8 9 9 9 9 9 9 9 9 10 10 10 10 8 5 5 5 6 6 6 7 7 7 8 8 12 12 15 17 14 11
4 3 3 3 2 1 2 3 4 5 7 8 7 7 8 9 9 9 9 9 10 10 10 10 10 10 8 6 5 6 7 6 6 7 7 8 8 8 7 10 15 17 18 18
4 4 2 2 2 3 3 5 5 6 7 7 7 8 8 9 9 10 10 10 11 11 10 10 10 10 8 6 6 7 7 7 7 7 7 8 8 8 7 7 7 7 12 18
4 3 3 2 3 3 4 4 6 7 7 8 7 8 9 10 11 11 11 10 10 11 10 10 10 10 8 8 7 7 6 6 6 6 7 7 7 7 8 8 8 6 5 8
4 2 2 3 4 5 5 6 7 8 8 8 9 9 9 10 11 11 10 10 10 11 11 10 10 9 9 8 8 7 7 8 7 6 6 7 7 8 8 8 8 8 8 8
4 3 4 4 6 6 6 7 8 9 9 10 10 10 10 10 10 11 10 9 10 11 11 10 10 9 8 8 7 6 6 7 8 7 6 7 7 8 8 8 8 8 8 9
5 5 5 6 6 7 8 8 8 9 9 10 10 10 10 10 11 12 11 11 11 11 10 9 8 9 8 7 7 6 6 6 6 6 6 6 7 7 8 8 9 9 7 8
4 5 5 6 7 7 8 9 9 9 9 9 9 10 10 10 10 11 11 11 11 12 9 7 11 9 8 8 9 6 6 6 6 6 6 8 8 7 7 8 8 8 7 7
4 4 6 7 7 6 8 9 9 9 9 9 9 10 11 11 10 10 10 11 9 8 9 10 9 8 8 8 9 6 6 6 6 6 6 6 6 6 6 7 7 7 7 7
5 6 7 7 8 8 8 9 9 10 10 9 9 11 11 11 10 9 9 10 8 8 9 12 8 6 6 8 9 6 6 6 6 6 6 6 5 5 5 6 6 6 6 6
5 6 7 8 8 9 8 8 8 10 10 10 10 10 10 11 10 9 9 8 9 12 9 6 6 9 10 11 6 5 6 6 6 5 5 5 5 5 5 5 5 5 5 5
6 6 7 8 8 9 9 8 8 8 9 10 10 10 10 10 8 8 10 6 6 11 9 7 10 14 14 8 5 5 6 6 6 5 5 4 4 4 4 4 4 4 4 4
6 6 7 7 7 7 9 9 8 8 9 10 9 10 9 9 8 6 7 11 14 14 8 10 14 14 12 5 5 5 5 5 5 5 4 4 3 3 3 3 3 3 3 4
6 6 7 7 7 7 8 9 9 9 8 8 9 9 7 6 7 8 7 8 12 13 8 10 13 13 7 4 5 5 4 4 4 4 3 3 2 2 2 2 2 2 2 3
5 6 6 7 7 7 7 7 7 8 8 9 9 7 6 6 7 7 7 8 9 11 8 6 6 7 5 5 5 5 4 4 4 3 2 2 2 2 2 2 2 2 2 2
6 6 5 6 6 6 6 6 7 8 8 9 10 9 7 7 7 7 8 7 7 6 6 5 5 5 4 4 4 4 3 3 3 2 2 2 2 1 1 1 1 1 1 2
Wind_Direction
80 94 131 155 183 165 160 171 174 195 180 235 55 57 38 30 32 31 16 3 349 331 313 302 285 262 236 219 201 183 176 181 186 176 166 161 160 157 155 157 160 155 148 148
27 29 67 46 330 210 197 190 201 193 208 257 45 65 53 37 33 21 358 343 332 324 317 305 285 265 247 228 210 190 189 191 179 168 167 168 165 161 160 162 160 158 164 164
51 7 44 328 290 233 154 344 198 205 215 4 32 50 63 49 31 6 342 334 328 319 306 297 287 266 248 235 212 197 197 188 178 174 174 174 169 168 172 173 170 171 173 169
121 83 207 257 342 103 108 54 40 74 50 25 322 216 126 81 24 351 336 332 324 318 312 302 291 280 259 235 206 200 197 191 183 178 178 173 173 179 180 176 179 181 181 174
126 156 249 291 5 91 133 89 15 65 31 358 333 97 173 31 8 341 325 316 312 308 302 301 298 290 269 235 208 201 202 196 187 180 177 177 183 185 182 178 183 184 179 174
134 168 221 233 287 314 109 173 4 57 32 3 15 6 287 339 340 333 326 319 317 315 311 309 307 301 265 239 216 214 210 199 184 179 180 185 186 182 178 177 182 177 179 181
158 207 252 259 300 49 165 231 104 55 23 6 338 264 295 317 322 321 317 316 317 318 316 311 310 306 273 252 238 230 203 184 181 182 183 180 176 174 175 176 175 180 183 188
168 200 243 289 88 143 182 97 80 16 341 315 294 295 304 312 315 317 316 316 319 320 317 314 311 303 283 268 258 219 190 186 185 181 178 175 174 180 182 182 186 190 193 200
187 200 101 75 112 101 100 105 23 317 312 309 303 303 307 308 310 309 310 311 313 313 314 315 312 299 285 280 255 209 196 195 187 180 180 176 181 187 190 193 198 198 200 209
141 160 127 106 99 70 73 81 314 303 303 304 298 300 304 306 306 307 308 309 313 314 314 315 314 303 284 279 247 213 208 203 192 188 189 187 190 193 198 201 203 202 206 214
171 151 123 162 138 117 48 358 326 315 305 300 299 300 302 304 306 308 310 309 310 310 310 311 313 307 295 277 245 226 218 210 203 200 197 200 203 206 206 209 207 205 209 207
206 193 183 214 206 181 332 316 312 311 308 306 302 301 304 304 305 306 307 308 308 308 308 308 308 303 295 277 254 237 228 218 211 206 204 204 206 215 218 216 220 221 217 211
162 157 168 191 192 199 284 290 295 295 294 300 300 299 302 303 305 305 304 306 307 306 304 305 304 300 298 284 264 249 242 229 217 211 209 207 207 211 219 222 226 228 227 224
139 125 143 184 227 274 280 286 289 288 288 290 294 298 299 299 302 303 303 305 304 302 302 304 305 303 307 300 278 262 253 239 227 219 215 213 212 213 213 214 218 226 228 228
160 160 194 230 261 282 289 295 298 296 294 295 295 296 298 300 301 302 301 303 303 300 299 301 302 304 311 308 291 277 265 252 238 228 219 217 212 211 213 214 220 220 211 223
180 189 219 247 268 281 290 291 289 289 291 292 294 293 292 292 293 294 296 298 301 301 301 300 299 301 304 304 301 289 274 261 250 239 225 219 215 214 215 216 218 219 220 217
166 221 242 262 272 281 281 277 275 282 287 288 288 290 292 293 293 293 293 291 288 289 290 289 290 295 296 296 293 290 284 274 260 249 235 224 219 218 217 216 217 220 222 213
199 218 228 240 256 273 282 283 282 284 284 285 290 292 290 290 291 293 295 296 293 290 284 278 282 291 290 290 290 286 282 276 268 259 247 236 230 222 218 218 219 222 223 217
223 239 251 257 258 263 272 278 282 282 284 288 290 289 287 285 285 288 292 294 294 294 292 287 295 294 288 287 291 281 278 278 275 266 256 249 244 229 221 219 221 221 217 209
251 261 267 272 271 265 272 278 282 285 284 284 285 286 287 286 285 288 290 287 279 276 283 290 291 284 282 284 288 279 275 274 274 271 263 254 247 238 228 222 221 220 215 212
267 274 277 279 282 279 273 276 281 285 288 284 280 282 285 287 286 286 288 291 287 278 284 292 289 279 279 281 284 276 274 272 270 266 264 260 254 246 236 226 221 218 214 212
267 274 279 282 284 287 284 279 276 281 287 287 284 282 286 289 290 287 274 270 282 293 296 284 280 281 286 288 275 272 273 272 270 265 259 255 253 248 237 227 221 217 213 210
271 273 279 282 283 287 291 286 278 280 284 286 287 287 285 284 284 286 292 284 283 294 297 283 286 290 292 289 274 270 271 272 272 268 263 256 251 247 240 228 220 213 209 209
278 280 282 284 288 290 293 295 291 286 282 283 279 277 279 287 287 269 268 290 300 300 294 292 298 298 295 283 272 269 269 271 273 270 263 256 248 242 236 228 218 210 207 208
281 284 286 294 295 290 288 295 299 296 294 292 287 281 274 267 274 286 286 287 295 300 295 295 299 300 295 280 273 270 268 268 271 271 263 260 253 242 233 225 215 207 204 207
281 283 281 277 276 282 288 294 297 299 302 303 301 295 288 281 277 281 286 285 285 294 295 288 288 291 285 277 274 271 268 276 284 283 273 268 260 251 241 230 220 210 207 210
286 282 284 289 284 276 279 284 290 295 299 299 301 302 299 296 293 292 291 292 291 290 288 286 283 281 280 279 276 273 270 267 266 267 270 267 264 261 255 246 239 229 216 213
Height
1489 1487 1487 1487 1488 1489 1493 1495 1499 1497 1497 1497 1496 1495 1495 1494 1493 1493 1492 1491 1491 1489 1488 1487 1486 1485 1484 1484 1485 1486 1487 1488 1490 1492 1493 1495 1495 1496 1496 1496 1495 1494 1493 1492
1491 1488 1488 1489 1489 1489 1490 1492 1494 1495 1497 1496 1496 1495 1495 1495 1494 1493 1492 1491 1489 1487 1486 1484 1482 1481 1480 1480 1481 1482 1483 1484 1486 1488 1489 1490 1491 1492 1491 1491 1490 1489 1488 1488
1498 1492 1491 1497 1492 1490 1490 1492 1492 1494 1497 1496 1496 1495 1495 1495 1494 1493 1491 1489 1487 1485 1482 1480 1479 1477 1476 1476 1476 1477 1478 1480 1481 1483 1485 1486 1487 1487 1487 1486 1485 1485 1484 1484
1501 1497 1503 1497 1491 1490 1494 1497 1496 1496 1497 1496 1495 1495 1494 1494 1493 1491 1489 1486 1484 1481 1479 1476 1474 1472 1471 1471 1471 1471 1473 1474 1476 1478 1480 1481 1482 1482 1482 1481 1481 1481 1481 1480
1503 1503 1499 1494 1492 1492 1494 1498 1499 1498 1497 1496 1494 1493 1493 1492 1491 1489 1487 1484 1481 1478 1475 1473 1470 1468 1466 1465 1465 1466 1467 1469 1471 1473 1474 1476 1476 1477 1477 1477 1477 1477 1477 1477
1501 1500 1499 1494 1492 1491 1493 1499 1499 1497 1497 1495 1493 1495 1493 1490 1488 1486 1483 1481 1478 1474 1472 1469 1466 1464 1462 1461 1461 1461 1462 1464 1466 1468 1469 1470 1471 1472 1472 1472 1473 1473 1473 1474
1500 1500 1497 1494 1491 1491 1499 1498 1498 1497 1496 1496 1495 1495 1492 1488 1486 1483 1480 1477 1474 1471 1468 1465 1462 1460 1458 1457 1457 1457 1458 1459 1460 1462 1463 1465 1466 1466 1467 1468 1468 1469 1469 1470
1500 1500 1500 1492 1492 1495 1496 1496 1496 1496 1495 1494 1493 1491 1488 1486 1483 1480 1477 1474 1470 1467 1464 1461 1459 1457 1454 1454 1453 1453 1453 1454 1455 1456 1458 1459 1460 1461 1462 1463 1463 1464 1465 1466
1495 1497 1494 1492 1493 1494 1495 1495 1495 1494 1493 1492 1490 1488 1485 1482 1479 1477 1474 1470 1467 1464 1460 1458 1456 1453 1451 1450 1449 1448 1448 1449 1450 1451 1452 1453 1454 1455 1456 1457 1458 1459 1460 1461
1493 1494 1494 1493 1494 1494 1494 1494 1494 1493 1491 1489 1487 1485 1482 1479 1476 1473 1470 1467 1463 1460 1457 1454 1452 1450 1448 1446 1445 1444 1444 1444 1445 1446 1446 1448 1449 1450 1451 1452 1453 1454 1455 1457
1493 1493 1494 1494 1494 1494 1493 1492 1491 1490 1488 1486 1484 1481 1478 1475 1472 1469 1466 1463 1459 1456 1453 1450 1447 1445 1443 1442 1440 1439 1439 1439 1439 1440 1441 1442 1443 1444 1445 1447 1448 1450 1451 1452
1491 1490 1491 1492 1492 1492 1491 1490 1489 1487 1485 1483 1481 1477 1474 1471 1468 1465 1461 1458 1455 1452 1448 1445 1443 1440 1438 1437 1436 1435 1434 1434 1434 1435 1435 1436 1437 1439 1440 1442 1443 1444 1446 1447
1487 1488 1489 1489 1490 1490 1489 1487 1486 1484 1482 1479 1477 1474 1471 1467 1464 1460 1457 1453 1450 1447 1443 1440 1438 1435 1433 1432 1430 1429 1429 1429 1429 1429 1430 1431 1432 1433 1434 1436 1437 1438 1440 1441
1486 1487 1487 1488 1488 1487 1486 1484 1482 1480 1478 1475 1473 1469 1466 1462 1459 1455 1452 1449 1445 1442 1438 1435 1432 1430 1428 1427 1425 1424 1423 1423 1423 1423 1424 1425 1426 1427 1428 1429 1431 1432 1434 1436
1485 1486 1486 1485 1485 1484 1482 1481 1478 1476 1474 1471 1468 1465 1461 1458 1454 1450 1447 1443 1440 1436 1433 1430 1427 1425 1423 1421 1419 1418 1417 1417 1417 1417 1418 1419 1420 1421 1422 1423 1424 1426 1428 1429
1483 1483 1483 1483 1482 1481 1479 1477 1474 1472 1469 1466 1463 1460 1457 1453 1449 1445 1442 1438 1434 1431 1428 1425 1422 1420 1418 1416 1414 1412 1411 1411 1411 1411 1411 1412 1413 1414 1415 1416 1418 1419 1420 1422
1481 1481 1480 1480 1479 1477 1475 1473 1471 1468 1464 1461 1458 1454 1451 1447 1443 1440 1436 1433 1429 1426 1423 1420 1417 1415 1412 1410 1408 1406 1405 1405 1404 1404 1405 1406 1406 1407 1409 1410 1411 1412 1413 1415
1479 1479 1478 1477 1475 1473 1471 1469 1466 1463 1460 1456 1453 1449 1445 1442 1438 1434 1431 1427 1423 1420 1417 1414 1411 1409 1407 1405 1403 1401 1399 1399 1398 1398 1398 1399 1400 1401 1402 1403 1404 1405 1406 1408
1476 1476 1475 1474 1472 1470 1467 1464 1461 1458 1455 1451 1447 1444 1440 1437 1433 1429 1425 1421 1417 1414 1411 1408 1406 1403 1401 1399 1397 1395 1394 1393 1392 1392 1392 1392 1393 1394 1395 1396 1397 1398 1400 1401
1473 1473 1471 1470 1468 1465 1462 1459 1456 1453 1450 1446 1442 1438 1434 1431 1427 1423 1419 1415 1412 1409 1405 1402 1400 1398 1395 1393 1392 1390 1389 1388 1387 1386 1386 1386 1386 1387 1388 1389 1390 1391 1393 1394
1470 1469 1467 1465 1463 1460 1458 1454 1451 1447 1444 1440 1436 1432 1429 1425 1422 1418 1414 1409 1407 1404 1400 1397 1394 1392 1390 1388 1386 1385 1383 1382 1381 1381 1380 1380 1380 1381 1382 1383 1384 1385 1386 1387
1466 1464 1462 1460 1457 1454 1452 1449 1445 1442 1438 1434 1430 1427 1423 1419 1416 1412 1409 1405 1401 1398 1395 1392 1389 1387 1385 1383 1381 1379 1378 1377 1376 1376 1375 1375 1374 1375 1375 1376 1377 1378 1379 1380
1462 1460 1458 1455 1452 1449 1446 1443 1440 1436 1432 1428 1425 1421 1417 1414 1410 1407 1402 1400 1396 1393 1390 1387 1384 1382 1380 1378 1376 1374 1373 1372 1371 1371 1370 1370 1369 1369 1370 1371 1371 1372 1373 1374
1458 1456 1453 1450 1447 1443 1440 1436 1433 1430 1426 1422 1419 1416 1412 1408 1404 1402 1398 1394 1391 1388 1384 1382 1379 1377 1375 1373 1371 1370 1368 1367 1366 1366 1365 1365 1365 1365 1365 1365 1366 1366 1367 1368
1453 1451 1448 1445 1441 1438 1434 1430 1427 1423 1420 1416 1413 1410 1406 1403 1399 1395 1392 1389 1385 1382 1379 1376 1374 1372 1370 1368 1366 1365 1363 1362 1361 1361 1361 1360 1360 1360 1360 1361 1361 1361 1362 1362
1448 1446 1443 1440 1436 1433 1429 1425 1421 1417 1413 1409 1406 1403 1400 1397 1393 1389 1386 1383 1380 1377 1374 1371 1369 1367 1365 1363 1362 1360 1359 1358 1357 1357 1356 1356 1356 1356 1356 1356 1356 1357 1357 1358
1443 1441 1437 1434 1431 1427 1424 1420 1416 1412 1408 1404 1400 1396 1394 1390 1387 1383 1380 1377 1374 1371 1369 1366 1364 1362 1360 1359 1357 1356 1355 1354 1354 1353 1353 1353 1353 1352 1352 1353 1353 1353 1353 1354